Marina Di Campo Airport

Jump to: basic info | weather | frequencies | runways | comments

Related pages: nearby airports | nearby navaids | notams | map

Basic information (top)

Codes: EBA LIRJ
Location: lon 42.760300, lat 10.239400, elev 31 ft / 9 m msl
Status: medium_airport

Weather (top)

Current conditions for Bastia-Poretta Airport 36nm (66km) WSW (rec'd 2014/10/01 20:00Z):

LFKB 012000Z 35009KT 320V020 9999 FEW023 SCT080 BKN250 21/17 Q1021 NOSIG

Airport forecast for Bastia-Poretta Airport 36nm (66km) WSW (rec'd 2014/10/01 18:15Z):

TAF LFKB 011700Z 0118/0218 34010KT 9999 FEW016 SCT060 BKN200 
      BECMG 0202/0204 04010KT BKN015 
      TEMPO 0202/0212 36015KT SHRA SCT015CB BKN030 TX25/0211Z TN16/0204Z

Frequencies (top)

Verify before use: may be inaccurate or out of date.

AFIS: 123.7 MHz (AFIS)

Runways (top)

16/34: 3,114 x 75 ft (949 x 23 m) — paved — not lighted — threshold 16 displaced 479 ft (146 m) — threshold 34 displaced 285 ft (87 m)

Latest comments (top)

No comments yet for Marina Di Campo Airport

More... (top)

See also NOTAMs and nearby airports and navaids, or visit the Marina Di Campo Airport page at the main OurAirports website..